Вернуться в каталог

STARLINK-11441

АктивенСвязьVLEO
NORAD 62413·PAYLOAD·🇺🇸 United States

Запущен Dec 23, 2024 с Cape Canaveral Space Force Station

Loading…

Ближайшие Пролёты (ближайшие 24 часа)

TLE

СвежийSource: CelesTrak SupGP

Эпоха: Sep 14, 2026, 22:21 UTC

1 62413C 24249E   26257.93173611  .00003454  00000+0  26839-4 0  2574
2 62413  43.0006 106.6802 0001699 262.4859 208.3418 15.70827450    11

Отслеживайте STARLINK-11441 в реальном времени с AllMySat

Download on the App Store